Location: *
(50.8512°N, 5.6907°E)
Time: 13:21:41
(UTC+00:00)

Meteor 2-10 - Pass Details

Date: 09 April 2020
Orbit: 737 x 869 km, 81.2° (Epoch: 03 June)

Event Time Altitude Azimuth Distance (km) Brightness Sun altitude
Rises 19:01:41 0° 193° (SSW) 3,339 7.2 -6.6°
Reaches altitude 10° 19:04:02 10° 195° (SSW) 2,429 6.5 -6.9°
Maximum altitude 19:09:34 82° 282° (WNW) 864 4.4 -7.7°
Drops below altitude 10° 19:15:19 10° 11° (N) 2,514 6.8 -8.5°
Sets 19:17:47 0° 13° (NNE) 3,463 7.5 -8.9°
